Regional Weather Roundup
Issued by NWS

Home | Current Version | Previous Version | Text Only | Print | Product List | Glossary On
Versions: 1 2 3 4 5 6 7 8 9 10 11 12 13 14 15 16 17 18 19 20 21 22 23 24 25 26 27 28 29 30 31 32 33 34 35 36 37 38 39 40 41 42 43 44 45 46 47 48 49 50
000
ASUS44 KOUN 030210
RWROK

WEATHER ROUNDUP FOR OKLAHOMA
NATIONAL WEATHER SERVICE NORMAN OK
900 PM CDT TUE SEP 02 2014

NOTE: "FAIR" INDICATES FEW OR NO CLOUDS BELOW 12,000 FEET WITH NO
      SIGNIFICANT WEATHER AND/OR OBSTRUCTIONS TO VISIBILITY.

OKZ001>007-009>012-014-015-017-030300-
NORTHWEST OKLAHOMA AND THE PANHANDLE

CITY           SKY/WX    TMP DP  RH WIND       PRES   REMARKS
GAGE           CLEAR     85  63  47 S14       29.88R
ENID/WOODRING  PTCLDY    81  72  74 SE17      29.88R
$$

OKZ016-021>023-033>039-044-045-030300-
SOUTHWEST OKLAHOMA

CITY           SKY/WX    TMP DP  RH WIND       PRES   REMARKS
LAWTON/REGL    CLEAR     89  65  44 SE9       29.87R HX  91
LAWTON/FT SILL CLEAR     88  68  50 S14       29.87R HX  91
FREDERICK      CLEAR     89  66  46 SE13      29.84R HX  91
CLINTON        CLEAR     88  64  44 S13       29.92R
HOBART         CLEAR     87  65  47 S10       29.89R
ALTUS AFB      CLEAR     88  67  49 SE12      29.87R HX  91
$$

OKZ018>020-024>031-030300-
CENTRAL OKLAHOMA

CITY           SKY/WX    TMP DP  RH WIND       PRES   REMARKS
OKLAHOMA CITY  CLEAR     84  67  56 SE13      29.91R
OKC/WILEY POST CLEAR     85  69  58 S14       29.91R
OKC/TINKER AFB CLEAR     81  69  67 SE8       29.92R
GUTHRIE        CLEAR     82  69  64 SE9       29.91R
$$

OKZ008-013-054>072-030300-
NORTHEAST OKLAHOMA

CITY           SKY/WX    TMP DP  RH WIND       PRES   REMARKS
TULSA          PTCLDY    73  68  84 SE6       29.95R
TULSA/JONES    CLEAR     73  68  84 E6        29.96R
PONCA CITY     CLEAR     77  69  76 SE13      29.92R
BARTLESVILLE   CLEAR     74  70  87 SE8       29.97R
MUSKOGEE       PTCLDY    70  67  90 E6        29.97R
$$

OKZ032-040>043-046>053-073>077-030300-
SOUTH CENTRAL/SOUTHEAST OKLAHOMA

CITY           SKY/WX    TMP DP  RH WIND       PRES   REMARKS
ARDMORE/DWNTWN CLEAR     82  68  61 SE3       29.90R
MCALESTER      CLEAR     77  70  79 E6        29.95R
$$




USA.gov is the U.S. government's official web portal to all federal, state and local government web resources and services.